Torna al catalogo

COSMOS 2594

AttivoMilitareSSO
NORAD 65270·PAYLOAD·🇷🇺 Russia

Lanciato Aug 21, 2025 da Plesetsk Cosmodrome

Loading…

Prossimi Passaggi (prossime 24 ore)

TLE

AggiornatoSource: Space-Track

Epoca: Sep 14, 2026, 22:04 UTC

1 65270U 25182D   26257.91955385  .00042828  25484-5  10466-3 0  9997
2 65270  96.5842 187.1030 0006215 120.9435 239.2456 15.96346427 62022

Traccia COSMOS 2594 in tempo reale con AllMySat

Download on the App Store